Tracking 17996 objects as of 26-February-2017
HD Live streaming from Space Station
objects crossing your sky now

TECHSAT 1B

Track TECHSAT 1B now!
10-day predictions
TECHSAT 1B is classified as:


NORAD ID: 25397
Int'l Code: 1998-043D
Perigee: 819.5 km
Apogee: 821.1 km
Inclination: 98.6 °
Period: 101.2 minutes
Semi major axis: 7191 km
RCS: 0.1942 m2 (medium)
Launch date: July 10, 1998
Source: Israel (ISRA)
Launch site: TYURATAM MISSILE AND SPACE COMPLEX (TTMTR)
Uplink (MHz): 145.850/145.930
Downlink (MHz): 435.225
Beacon (MHz): 435.325
Mode: 9600bps FSK
Call sign: 4XTECH-11 -12
Status: Active


In February 2004 all scientific investigations were completed and the satellite was turned over to amateur radio completely with 90% of power intact.
Your satellite tracking list
Your tracking list is empty





NASA's NSSDC Master Catalog

Two Line Element Set (TLE):
1 25397U 98043D   17057.49863762 -.00000010  00000-0  14688-4 0  9998
2 25397  98.5991   2.2352 0001135  18.7994 341.3227 14.23615644968046
Source of the keplerian elements: Caltech